• In Czech Republic
  • List of Countries
  • For 7 days
  • Water Temperature
  • Satellite Maps
  • Weather Map
  • Weather Widgets
  • user-avatar
    Login

    Hourly Weather Adelaide

    Today, 16 December, Saturday

    Time Temperature Precipitation Wind Pressure Humidity
    00:00 +17°C° 0 mm 2 mps 756 mmHg 72%
    01:00 +17°C° 0 mm 2 mps 756 mmHg 75%
    02:00 +17°C° 0 mm 2 mps 756 mmHg 77%
    03:00 +16°C° 0 mm 2 mps 756 mmHg 80%
    04:00 +18°C° 0 mm 1 mps 756 mmHg 78%
    05:00 +18°C° 0 mm 1 mps 757 mmHg 77%
    06:00 +19°C° 0 mm 1 mps 757 mmHg 75%
    07:00 +21°C° 0 mm 1 mps 757 mmHg 66%
    08:00 +21°C° 0 mm 2 mps 757 mmHg 57%
    09:00 +24°C° 0 mm 2 mps 758 mmHg 50%
    10:00 +26°C° 0 mm 2 mps 758 mmHg 46%
    11:00 +27°C° 0 mm 2 mps 757 mmHg 42%
    12:00 +28°C° 0 mm 3 mps 757 mmHg 38%
    13:00 +28°C° 0 mm 3 mps 757 mmHg 38%
    14:00 +29°C° 0 mm 4 mps 756 mmHg 38%
    15:00 +28°C° 0 mm 4 mps 756 mmHg 41%
    16:00 +27°C° 0 mm 5 mps 756 mmHg 44%
    17:00 +26°C° 0 mm 5 mps 756 mmHg 47%
    18:00 +25°C° 0 mm 5 mps 756 mmHg 49%
    19:00 +23°C° 0 mm 5 mps 757 mmHg 54%
    20:00 +21°C° 0 mm 5 mps 757 mmHg 60%
    21:00 +20°C° 0 mm 3 mps 757 mmHg 62%
    22:00 +20°C° 0 mm 3 mps 757 mmHg 65%
    23:00 +19°C° 0 mm 4 mps 757 mmHg 68%

    Tomorrow, 17 December, Sunday

    Time Temperature Precipitation Wind Pressure Humidity
    00:00 +19°C° 0 mm 4 mps 757 mmHg 70%
    01:00 +19°C° 0 mm 4 mps 756 mmHg 70%
    02:00 +19°C° 0 mm 4 mps 756 mmHg 71%
    03:00 +18°C° 0 mm 4 mps 755 mmHg 71%
    04:00 +19°C° 0 mm 4 mps 756 mmHg 67%
    05:00 +20°C° 0 mm 3 mps 756 mmHg 64%
    06:00 +20°C° 0 mm 3 mps 756 mmHg 60%
    07:00 +24°C° 0 mm 3 mps 756 mmHg 51%
    08:00 +27°C° 0 mm 4 mps 756 mmHg 42%
    09:00 +30°C° 0 mm 4 mps 755 mmHg 33%
    10:00 +33°C° 0 mm 3 mps 755 mmHg 29%
    11:00 +35°C° 0 mm 3 mps 755 mmHg 25%
    12:00 +37°C° 0 mm 3 mps 754 mmHg 21%
    13:00 +37°C° 0 mm 3 mps 754 mmHg 20%
    14:00 +38°C° 0 mm 3 mps 753 mmHg 19%
    15:00 +38°C° 0 mm 3 mps 752 mmHg 19%
    16:00 +37°C° 0 mm 3 mps 752 mmHg 21%
    17:00 +36°C° 0 mm 4 mps 752 mmHg 24%
    18:00 +34°C° 0 mm 4 mps 752 mmHg 27%
    19:00 +33°C° 0 mm 4 mps 752 mmHg 28%
    20:00 +33°C° 0 mm 5 mps 752 mmHg 28%
    21:00 +32°C° 0 mm 5 mps 752 mmHg 29%
    22:00 +32°C° 0 mm 5 mps 752 mmHg 28%
    23:00 +32°C° 0 mm 5 mps 751 mmHg 27%

    Day after tomorrow, 18 December, Monday

    Time Temperature Precipitation Wind Pressure Humidity
    00:00 +32°C° 0 mm 5 mps 751 mmHg 26%
    01:00 +30°C° 0 mm 4 mps 751 mmHg 25%
    02:00 +30°C° 0 mm 4 mps 751 mmHg 25%
    03:00 +30°C° 0 mm 3 mps 751 mmHg 25%
    04:00 +30°C° 0.1 mm 4 mps 751 mmHg 24%
    05:00 +30°C° 0.1 mm 5 mps 751 mmHg 24%
    06:00 +30°C° 0.1 mm 5 mps 751 mmHg 24%
    07:00 +32°C° 0 mm 6 mps 751 mmHg 21%
    08:00 +34°C° 0 mm 7 mps 750 mmHg 19%
    09:00 +35°C° 0 mm 8 mps 750 mmHg 17%
    10:00 +38°C° 0 mm 7 mps 749 mmHg 17%
    11:00 +40°C° 0 mm 7 mps 749 mmHg 16%
    12:00 +43°C° 0 mm 7 mps 748 mmHg 16%
    13:00 +44°C° 0 mm 7 mps 747 mmHg 14%
    14:00 +45°C° 0 mm 7 mps 746 mmHg 13%
    15:00 +46°C° 0 mm 6 mps 744 mmHg 12%
    16:00 +43°C° 0 mm 5 mps 744 mmHg 15%
    17:00 +41°C° 0 mm 4 mps 744 mmHg 19%
    18:00 +38°C° 0 mm 3 mps 743 mmHg 22%
    19:00 +35°C° 0.4 mm 5 mps 744 mmHg 33%
    20:00 +33°C° 0.4 mm 7 mps 744 mmHg 43%
    21:00 +31°C° 0.4 mm 8 mps 745 mmHg 54%
    22:00 +29°C° 0.3 mm 7 mps 746 mmHg 58%
    23:00 +28°C° 0.3 mm 5 mps 746 mmHg 62%

    19 December, Tuesday

    Time Temperature Precipitation Wind Pressure Humidity
    00:00 +27°C° 0.3 mm 3 mps 746 mmHg 66%
    01:00 +26°C° 1 mm 3 mps 746 mmHg 70%
    02:00 +25°C° 1 mm 2 mps 746 mmHg 74%
    03:00 +24°C° 1 mm 2 mps 746 mmHg 78%
    04:00 +24°C° 0.4 mm 2 mps 746 mmHg 76%
    05:00 +24°C° 0.4 mm 2 mps 746 mmHg 75%
    06:00 +24°C° 0.4 mm 2 mps 747 mmHg 73%
    07:00 +25°C° 0 mm 3 mps 747 mmHg 64%
    08:00 +27°C° 0 mm 4 mps 747 mmHg 56%
    09:00 +28°C° 0 mm 5 mps 747 mmHg 47%
    10:00 +29°C° 0 mm 6 mps 748 mmHg 43%
    11:00 +29°C° 0 mm 7 mps 748 mmHg 39%
    12:00 +30°C° 0 mm 7 mps 748 mmHg 35%
    13:00 +30°C° 0 mm 7 mps 748 mmHg 34%
    14:00 +29°C° 0 mm 7 mps 748 mmHg 32%
    15:00 +29°C° 0 mm 7 mps 748 mmHg 31%
    16:00 +28°C° 0 mm 7 mps 748 mmHg 35%
    17:00 +27°C° 0 mm 7 mps 748 mmHg 39%
    18:00 +26°C° 0 mm 7 mps 749 mmHg 43%
    19:00 +23°C° 0 mm 6 mps 750 mmHg 49%
    20:00 +22°C° 0 mm 6 mps 751 mmHg 56%
    21:00 +21°C° 0 mm 6 mps 752 mmHg 62%
    22:00 +20°C° 0 mm 6 mps 752 mmHg 65%
    23:00 +20°C° 0 mm 6 mps 752 mmHg 67%

    20 December, Wednesday

    Time Temperature Precipitation Wind Pressure Humidity
    00:00 +19°C° 0 mm 6 mps 752 mmHg 69%
    01:00 +19°C° 0 mm 5 mps 752 mmHg 70%
    02:00 +19°C° 0 mm 5 mps 752 mmHg 71%
    03:00 +19°C° 0 mm 5 mps 752 mmHg 72%
    04:00 +19°C° 0 mm 5 mps 753 mmHg 71%
    05:00 +19°C° 0 mm 5 mps 753 mmHg 70%
    06:00 +19°C° 0 mm 5 mps 754 mmHg 69%
    07:00 +20°C° 0.1 mm 5 mps 755 mmHg 65%
    08:00 +21°C° 0.1 mm 5 mps 755 mmHg 61%
    09:00 +22°C° 0.1 mm 5 mps 756 mmHg 57%
    10:00 +22°C° 0.1 mm 6 mps 756 mmHg 55%
    11:00 +22°C° 0.1 mm 6 mps 757 mmHg 53%
    12:00 +23°C° 0.1 mm 7 mps 757 mmHg 52%
    13:00 +22°C° 0 mm 7 mps 757 mmHg 51%
    14:00 +22°C° 0 mm 6 mps 758 mmHg 50%
    15:00 +22°C° 0 mm 6 mps 758 mmHg 49%
    16:00 +21°C° 0 mm 6 mps 758 mmHg 51%
    17:00 +20°C° 0 mm 6 mps 759 mmHg 52%
    18:00 +20°C° 0 mm 6 mps 759 mmHg 53%
    19:00 +19°C° 0 mm 5 mps 760 mmHg 57%
    20:00 +17°C° 0 mm 5 mps 761 mmHg 60%
    21:00 +17°C° 0 mm 4 mps 761 mmHg 64%
    22:00 +17°C° 0 mm 4 mps 761 mmHg 66%
    23:00 +16°C° 0 mm 3 mps 761 mmHg 67%

    21 December, Thursday

    Time Temperature Precipitation Wind Pressure Humidity
    00:00 +16°C° 0 mm 3 mps 761 mmHg 69%
    01:00 +16°C° 0 mm 3 mps 761 mmHg 70%
    02:00 +16°C° 0 mm 3 mps 761 mmHg 72%
    03:00 +15°C° 0 mm 2 mps 760 mmHg 73%
    04:00 +16°C° 0 mm 3 mps 761 mmHg 71%
    05:00 +16°C° 0 mm 3 mps 761 mmHg 70%
    06:00 +17°C° 0 mm 3 mps 762 mmHg 68%
    07:00 +18°C° 0 mm 3 mps 762 mmHg 61%
    08:00 +20°C° 0 mm 2 mps 762 mmHg 54%
    09:00 +23°C° 0 mm 2 mps 762 mmHg 47%
    10:00 +24°C° 0 mm 2 mps 762 mmHg 44%
    11:00 +25°C° 0 mm 2 mps 761 mmHg 41%
    12:00 +27°C° 0 mm 3 mps 761 mmHg 37%
    13:00 +27°C° 0 mm 3 mps 760 mmHg 38%
    14:00 +27°C° 0 mm 4 mps 760 mmHg 39%
    15:00 +27°C° 0 mm 4 mps 759 mmHg 40%
    16:00 +26°C° 0 mm 4 mps 759 mmHg 44%
    17:00 +25°C° 0 mm 5 mps 759 mmHg 48%
    18:00 +23°C° 0 mm 5 mps 759 mmHg 52%
    19:00 +21°C° 0 mm 5 mps 759 mmHg 56%
    20:00 +20°C° 0 mm 4 mps 759 mmHg 61%
    21:00 +19°C° 0 mm 4 mps 759 mmHg 65%
    22:00 +19°C° 0 mm 4 mps 759 mmHg 68%
    23:00 +18°C° 0 mm 3 mps 759 mmHg 70%
    Show more